Location: Écuvilly
(49.6505°N, 2.9206°E)
Time: 17:09:40
(UTC+00:00)

Cosmos 304 Rocket - Pass Details

Date: 17 November 2025
Orbit: 668 x 677 km, 74.0° (Epoch: 09 December)

Event Time Altitude Azimuth Distance (km) Brightness Sun altitude
Rises 18:06:46 0° 187° (S) 3,002 7.3 -19.8°
Reaches altitude 10° 18:09:05 10° 183° (S) 2,094 6.4 -20.2°
Maximum altitude 18:13:38 52° 107° (ESE) 839 3.8 -20.9°
Enters shadow 18:13:51 51° 97° (E) 844 3.8 -21.0°
